Weather History for Messina, Italy

Change the Weather History Date:

Thursday, November 15, 2012

  Actual Average (LICR) Record (LICR)
Temperature  
Mean Temperature 65 °F -  
Max Temperature 70 °F 63 °F 80 °F (2002)
Min Temperature 60 °F 54 °F 46 °F (2011)
Growing Degree Days 15 (Base 50)    
Moisture  
Dew Point 56 °F    
Average Humidity 78    
Maximum Humidity 94    
Minimum Humidity 52    
Precipitation  
Precipitation 0.12 in 0.15 in - ()
Sea Level Pressure  
Sea Level Pressure 29.98 in    
Wind  
Wind Speed 3 mph ()    
Max Wind Speed 16 mph    
Max Gust Speed 28 mph    
Visibility 6.0 miles    
Events Rain , Thunderstorm    
Averages and records for this station are not official NWS values.
T = Trace of Precipitation, MM = Missing Value Source: Averaged Metar Reports

Daily Weather History Graph

Daily Weather History Graph

Search for Another Location

Airport:

Trip Planner

Search our weather history database for the weather conditions in past years. The results will help you decide how hot, cold, wet, or windy it might be!

Date:

Astronomy

Nov. 15, 2012 Rise Set
Actual Time 6:39 AM CET 4:45 PM CET
Civil Twilight 6:10 AM CET 5:13 PM CET
Nautical Twilight 5:39 AM CET 5:45 PM CET
Astronomical Twilight 5:07 AM CET 6:16 PM CET
Moon 8:15 AM CET (11/15) 6:18 PM CET (11/15)
Length of Visible Light 11h 02m
Length of Day
10h 06m
Waxing Crescent, 4% of the Moon is Illuminated
Nov 15
Waxing Crescent
Nov 20
First Quarter
Nov 28
Full
Dec 6
Last Quarter
Dec 13
New

Hourly Weather History & Observations

Time (CET) Temp. Dew Point Humidity Pressure Visibility Wind Dir Wind Speed Gust Speed Precip Events Conditions
12:55 AM 62.6 °F 55.4 °F 77% 30.04 in 6.2 mi Calm Calm - N/A   Partly Cloudy
1:00 AM 62 °F 56 °F 73% 30.05 in 6 mi Calm Calm - -   Scattered Clouds
1:55 AM 62.6 °F 57.2 °F 82% 30.04 in 6.2 mi Variable 1.2 mph - N/A   Partly Cloudy
2:55 AM 62.6 °F 55.4 °F 77% 30.01 in 6.2 mi Variable 1.2 mph - N/A   Partly Cloudy
3:55 AM 62.6 °F 55.4 °F 77% 30.01 in 6.2 mi Calm Calm - N/A   Partly Cloudy
4:55 AM 62.6 °F 55.4 °F 77% 30.01 in 6.2 mi Variable 1.2 mph - N/A   Partly Cloudy
5:55 AM 62.6 °F 55.4 °F 77% 30.01 in 6.2 mi Calm Calm - N/A   Scattered Clouds
6:55 AM 62.6 °F 55.4 °F 77% 30.01 in 6.2 mi Calm Calm - N/A   Partly Cloudy
7:55 AM 64.4 °F 57.2 °F 77% 30.01 in 6.2 mi Calm Calm - N/A   Partly Cloudy
8:55 AM 64.4 °F 57.2 °F 77% 30.01 in 6.2 mi SSW 2.3 mph - N/A   Scattered Clouds
9:55 AM 68.0 °F 55.4 °F 64% 30.01 in 6.2 mi WSW 9.2 mph - N/A   Scattered Clouds
10:55 AM 69.8 °F 55.4 °F 60% 29.98 in 6.2 mi SW 9.2 mph - N/A   Scattered Clouds
11:55 AM 69.8 °F 53.6 °F 56% 29.98 in 6.2 mi SW 10.4 mph - N/A   Scattered Clouds
12:55 PM 68.0 °F 53.6 °F 60% 29.95 in 6.2 mi SW 16.1 mph 27.6 mph N/A   Scattered Clouds
1:00 PM 68 °F 54 °F 52% 29.97 in 6 mi SW 16.1 mph - -   Overcast
1:55 PM 64.4 °F 57.2 °F 77% 29.98 in 6.2 mi WSW 10.4 mph - N/A Rain Light Rain
2:55 PM 62.6 °F 55.4 °F 77% 29.95 in 6.2 mi West 6.9 mph - N/A   Scattered Clouds
3:55 PM 60.8 °F 57.2 °F 88% 29.95 in 6.2 mi West 3.5 mph - N/A   Mostly Cloudy
4:55 PM 60.8 °F 59.0 °F 94% 29.95 in 5.0 mi Calm Calm - N/A Rain Rain
5:55 PM 60.8 °F 57.2 °F 88% 29.95 in 6.2 mi NNW 2.3 mph - N/A   Scattered Clouds
6:55 PM 60.8 °F 57.2 °F 88% 29.95 in 6.2 mi WNW 2.3 mph - N/A   Scattered Clouds
7:00 PM 60 °F 58 °F 89% 29.96 in 6 mi WNW 2.3 mph - -   Partly Cloudy
8:55 PM 60.8 °F 55.4 °F 82% 29.95 in 6.2 mi Calm Calm - N/A   Scattered Clouds
9:55 PM 60.8 °F 57.2 °F 88% 29.95 in 5.6 mi Calm Calm - N/A Rain , Thunderstorm Light Thunderstorms and Rain
10:55 PM 60.8 °F 59.0 °F 94% 29.95 in 5.0 mi West 1.2 mph - N/A Rain Light Rain
11:55 PM 60.8 °F 59.0 °F 94% 29.95 in 5.0 mi Calm Calm - N/A Rain , Thunderstorm Light Thunderstorms and Rain